Regional Weather Roundup
Issued by NWS

Home | Current Version | Previous Version | Text Only | Print | Product List | Glossary Off
Versions: 1 2 3 4 5 6 7 8 9 10 11 12 13 14 15 16 17 18 19 20 21 22 23 24 25 26 27 28 29 30 31 32 33 34 35 36 37 38 39 40 41 42 43 44 45 46 47 48 49 50

000
ASUS43 KIND 310509
RWRIN

WEATHER ROUNDUP FOR INDIANA
NATIONAL WEATHER SERVICE INDIANAPOLIS IN
100 AM EDT SUN JUL 31 2016

NOTE: "FAIR" INDICATES FEW OR NO CLOUDS BELOW 12,000 FEET WITH NO
SIGNIFICANT WEATHER AND/OR OBSTRUCTIONS TO VISIBILITY.

* - STATION DOES NOT REPORT WEATHER SUCH AS PRECIPITATION OR FOG.

+ - STATION NOT QUALITY CONTROLLED BY THE NATIONAL WEATHER SERVICE.
    USE DATA WITH CAUTION...ESPECIALLY DEWPOINT AND RELATIVE
    HUMIDITY OBSERVATIONS.

INZ001>003-010>013-019-020-310600-
NORTHWEST INDIANA

CITY           SKY/WX    TMP DP  RH WIND       PRES   REMARKS
GARY /AIRPORT/ CLEAR     72  70  95 E3        30.01S
KNOX *+        CLEAR     64  63  94 NE5       29.99S
LA PORTE +     PTCLDY   N/A N/A N/A NE3       30.00F
MICHIGAN CITY+ CLEAR     64  64 100 CALM      30.00F FOG
MONTICELLO +   PTCLDY    67  63  87 NW3       29.98S
RENSSELAER +   MOCLDY    66  64  94 CALM      29.99S
VALPARAISO     CLEAR     66  64  93 N5        30.00F

$$

LMZ046-743>745-310600-
SOUTHERN LAKE MICHIGAN

STATION/POSITION TIME  TEMP    WIND        PRES    WAVE
                       AIR SEA DIR/SP/G            HT
                 (UTC) (F)     (DEG/KT/KT) (MB)    (FT)
BURNS HARBOR     0401   67      80/  7/ 13 1016.6R
MICHIGAN CITY    0400   66      50/  5/  5   N/A
5NW MICH CITY    0500   67 68   60/  4/  6   N/A     2

$$

INZ004-005-014>016-021>024-310600-
NORTH CENTRAL INDIANA

CITY           SKY/WX    TMP DP  RH WIND       PRES   REMARKS
GOSHEN         PTCLDY    69  65  86 CALM      29.99F
LOGANSPORT +   PTCLDY    66  64  94 CALM      29.99S
PERU/GRISSOM   CLOUDY    68  68 100 S1        29.97S
ROCHESTER +    CLEAR     72  70  94 NE3       30.00S
SOUTH BEND     PTCLDY    66  65  96 N5        30.00S
WARSAW +       CLOUDY    70  68  94 NE3       29.99F

$$

INZ006>009-017-018-025>027-310600-
NORTHEAST INDIANA

CITY           SKY/WX    TMP DP  RH WIND       PRES   REMARKS
ANGOLA *+      CLEAR     66  57  72 CALM      30.00S
AUBURN +       MOCLDY    68  64  88 NE5       30.00S
FORT WAYNE     PTCLDY    69  66  90 NE6       29.98S
HUNTINGTON +   PTCLDY    69  68  96 CALM      29.97F

$$

INZ028-029-035-036-043>045-051>053-310600-
WEST CENTRAL INDIANA

CITY           SKY/WX    TMP DP  RH WIND       PRES   REMARKS
CRAWFORDSVL +  PTCLDY    64  64 100 CALM      29.98F
GREENCASTLE +  CLEAR     66  66 100 CALM      30.00S
LAFAYETTE      CLEAR     67  67 100 CALM      29.98S
TERRE HAUTE    CLEAR     68  65  90 CALM      29.98S

$$

INZ030>032-037>040-046>048-054>057-064-065-310600-
CENTRAL INDIANA

CITY           SKY/WX    TMP DP  RH WIND       PRES   REMARKS
FISHERS *+     CLOUDY    68  68 100 CALM      29.99
INDIANAPOLIS   PTCLDY    73  66  78 W5        29.99R
-EAGLE CREEK   CLEAR     74  66  76 CALM      29.98S
KOKOMO *+      CLEAR     68  63  83 CALM      29.98S
MARION +       CLEAR     65  65 100 CALM      29.98F FOG
MT COMFORT *+  CLEAR     66  64  94 CALM      29.99S
SHELBYVILLE    CLEAR     69  65  86 CALM      29.98S
ZIONSVILLE +   PTCLDY    65  64  97 CALM      29.99S

$$

INZ033-034-041-042-049-050-058-059-310600-
EAST CENTRAL INDIANA

CITY           SKY/WX    TMP DP  RH WIND       PRES   REMARKS
MUNCIE         CLEAR     69  67  93 CALM      29.98F

$$

INZ060-061-067>069-081>083-085>088-310600-
SOUTHWEST INDIANA

CITY           SKY/WX    TMP DP  RH WIND       PRES   REMARKS
EVANSVILLE     CLEAR     73  70  90 CALM      29.99S
HUNTINGBURG *+ MOCLDY    72  68  88 CALM      30.00R
WASHINGTON +   CLEAR     69  69 100 MISG      29.99R

$$

INZ062-063-066-070>080-084-089>092-310600-
SOUTH CENTRAL AND SOUTHEAST INDIANA

CITY           SKY/WX    TMP DP  RH WIND       PRES   REMARKS
BLOOMINGTON    CLEAR     67  65  93 CALM      30.00R
MADISON *+     CLEAR     72  70  94 CALM      30.02S
NORTH VERNON + CLEAR    N/A N/A N/A CALM      30.00S
SEYMOUR +      FOG       70  68  94 CALM      29.99R VSB 1

$$





USA.gov is the U.S. government's official web portal to all federal, state and local government web resources and services.